QPF
0.00 0.00 0.00 0.00 0.00 0.00 0.00 0.00 0.00 0.00 0.00 0.00 0.00 0.00 0.00 0.00 0.00 0.00 0.00 0.00 0.00 0.00 0.00 0.00 0.00 0.00 0.00 0.00 0.00 0.00 0.00 0.00 0.00 0.00 0.00 0.00 0.00 0.00 0.00 0.00 0.00 0.00 0.00 0.00 0.01
0.00 0.00 0.00 0.00 0.00 0.00 0.00 0.00 0.00 0.00 0.00 0.00 0.00 0.00 0.00 0.00 0.00 0.00 0.00 0.00 0.00 0.00 0.00 0.00 0.00 0.00 0.00 0.00 0.00 0.00 0.00 0.00 0.00 0.00 0.00 0.00 0.00 0.00 0.00 0.00 0.00 0.00 0.00 0.00 0.00
0.00 0.00 0.00 0.00 0.00 0.00 0.00 0.00 0.00 0.00 0.00 0.00 0.00 0.00 0.00 0.00 0.00 0.00 0.00 0.00 0.00 0.00 0.00 0.00 0.00 0.00 0.00 0.00 0.00 0.00 0.00 0.00 0.00 0.00 0.00 0.00 0.00 0.00 0.00 0.00 0.00 0.00 0.00 0.00 0.00
0.00 0.00 0.00 0.00 0.00 0.00 0.00 0.00 0.00 0.00 0.00 0.00 0.00 0.00 0.00 0.00 0.00 0.00 0.00 0.00 0.00 0.00 0.00 0.00 0.00 0.00 0.00 0.00 0.00 0.00 0.00 0.00 0.00 0.00 0.00 0.00 0.00 0.00 0.00 0.00 0.00 0.00 0.00 0.00 0.00
0.00 0.00 0.00 0.00 0.00 0.00 0.00 0.00 0.00 0.00 0.00 0.00 0.00 0.00 0.00 0.00 0.00 0.00 0.00 0.00 0.00 0.00 0.00 0.00 0.00 0.00 0.00 0.00 0.00 0.00 0.00 0.00 0.00 0.00 0.00 0.00 0.00 0.00 0.00 0.00 0.00 0.00 0.00 0.00 0.00
0.00 0.00 0.00 0.00 0.00 0.00 0.00 0.00 0.00 0.00 0.00 0.00 0.00 0.00 0.00 0.00 0.00 0.00 0.00 0.00 0.00 0.00 0.00 0.00 0.00 0.00 0.00 0.00 0.00 0.00 0.00 0.00 0.00 0.00 0.00 0.00 0.00 0.00 0.00 0.00 0.00 0.00 0.00 0.00 0.00
0.00 0.00 0.00 0.00 0.00 0.00 0.00 0.00 0.00 0.00 0.00 0.00 0.00 0.00 0.00 0.00 0.00 0.00 0.00 0.00 0.00 0.00 0.00 0.00 0.00 0.00 0.00 0.00 0.00 0.00 0.00 0.00 0.00 0.00 0.00 0.00 0.00 0.00 0.00 0.00 0.00 0.00 0.00 0.00 0.00
0.00 0.00 0.00 0.00 0.00 0.00 0.00 0.00 0.00 0.00 0.00 0.00 0.00 0.00 0.00 0.00 0.00 0.00 0.00 0.00 0.00 0.00 0.00 0.00 0.00 0.00 0.00 0.00 0.00 0.00 0.00 0.00 0.00 0.00 0.00 0.00 0.00 0.00 0.00 0.00 0.00 0.00 0.00 0.00 0.00
0.00 0.00 0.00 0.00 0.00 0.00 0.00 0.00 0.00 0.00 0.00 0.00 0.00 0.00 0.00 0.00 0.00 0.00 0.00 0.00 0.00 0.00 0.00 0.00 0.00 0.00 0.00 0.00 0.00 0.00 0.00 0.00 0.00 0.00 0.00 0.00 0.00 0.00 0.00 0.00 0.00 0.00 0.00 0.00 0.00
0.00 0.00 0.00 0.00 0.00 0.00 0.00 0.00 0.00 0.00 0.00 0.00 0.00 0.00 0.00 0.00 0.00 0.00 0.00 0.00 0.00 0.00 0.00 0.00 0.00 0.00 0.00 0.00 0.00 0.00 0.00 0.00 0.00 0.00 0.00 0.00 0.00 0.00 0.00 0.00 0.00 0.00 0.00 0.00 0.00
0.00 0.00 0.00 0.00 0.00 0.00 0.00 0.00 0.00 0.00 0.00 0.00 0.00 0.00 0.00 0.00 0.00 0.00 0.00 0.00 0.00 0.00 0.00 0.00 0.00 0.00 0.00 0.00 0.00 0.00 0.00 0.00 0.00 0.00 0.00 0.00 0.00 0.00 0.00 0.00 0.00 0.00 0.00 0.00 0.00
0.00 0.00 0.00 0.00 0.00 0.00 0.00 0.00 0.00 0.00 0.00 0.00 0.00 0.00 0.00 0.00 0.00 0.00 0.00 0.00 0.00 0.00 0.00 0.00 0.00 0.00 0.00 0.00 0.00 0.00 0.00 0.00 0.00 0.00 0.00 0.00 0.00 0.00 0.00 0.00 0.00 0.00 0.00 0.00 0.00
0.00 0.00 0.00 0.00 0.00 0.00 0.00 0.00 0.00 0.00 0.00 0.00 0.00 0.00 0.00 0.00 0.00 0.00 0.00 0.00 0.00 0.00 0.00 0.00 0.00 0.00 0.00 0.00 0.00 0.00 0.00 0.00 0.00 0.00 0.00 0.00 0.00 0.00 0.00 0.00 0.00 0.00 0.00 0.00 0.00
0.00 0.00 0.00 0.00 0.00 0.00 0.00 0.00 0.00 0.00 0.00 0.00 0.00 0.00 0.00 0.00 0.00 0.00 0.00 0.00 0.00 0.00 0.00 0.00 0.00 0.00 0.00 0.00 0.00 0.00 0.00 0.00 0.00 0.00 0.00 0.00 0.00 0.00 0.00 0.00 0.00 0.00 0.00 0.00 0.00
0.00 0.00 0.00 0.00 0.00 0.00 0.00 0.00 0.00 0.00 0.00 0.00 0.00 0.00 0.00 0.00 0.00 0.00 0.00 0.00 0.00 0.00 0.00 0.00 0.00 0.00 0.00 0.00 0.00 0.00 0.00 0.00 0.00 0.00 0.00 0.00 0.00 0.00 0.00 0.00 0.00 0.00 0.00 0.00 0.00
0.00 0.00 0.00 0.00 0.00 0.00 0.00 0.00 0.00 0.00 0.00 0.00 0.00 0.00 0.00 0.00 0.00 0.00 0.00 0.00 0.00 0.00 0.00 0.00 0.00 0.00 0.00 0.00 0.00 0.00 0.00 0.00 0.00 0.00 0.00 0.00 0.00 0.00 0.00 0.00 0.00 0.00 0.00 0.00 0.00
0.00 0.00 0.00 0.00 0.00 0.00 0.00 0.00 0.00 0.00 0.00 0.00 0.00 0.00 0.00 0.00 0.00 0.00 0.00 0.00 0.00 0.00 0.00 0.00 0.00 0.00 0.00 0.00 0.00 0.00 0.00 0.00 0.00 0.00 0.00 0.00 0.00 0.00 0.00 0.00 0.00 0.00 0.00 0.00 0.00
0.00 0.00 0.00 0.00 0.00 0.00 0.00 0.00 0.00 0.00 0.00 0.00 0.00 0.00 0.00 0.00 0.00 0.00 0.00 0.00 0.00 0.00 0.00 0.00 0.00 0.00 0.00 0.00 0.00 0.00 0.00 0.00 0.00 0.00 0.00 0.00 0.00 0.00 0.00 0.00 0.00 0.00 0.00 0.00 0.00
0.00 0.00 0.00 0.00 0.00 0.00 0.00 0.00 0.00 0.00 0.00 0.00 0.00 0.00 0.00 0.00 0.00 0.00 0.00 0.00 0.00 0.00 0.00 0.00 0.00 0.00 0.00 0.00 0.00 0.00 0.00 0.00 0.00 0.00 0.00 0.00 0.00 0.00 0.00 0.00 0.00 0.00 0.00 0.00 0.00
0.00 0.00 0.00 0.00 0.00 0.00 0.00 0.00 0.00 0.00 0.00 0.00 0.00 0.00 0.00 0.00 0.00 0.00 0.00 0.00 0.00 0.00 0.00 0.00 0.00 0.00 0.00 0.00 0.00 0.00 0.00 0.00 0.00 0.00 0.00 0.00 0.00 0.00 0.00 0.00 0.00 0.00 0.00 0.00 0.00
0.00 0.00 0.00 0.00 0.00 0.00 0.00 0.00 0.00 0.00 0.00 0.00 0.00 0.00 0.00 0.00 0.00 0.00 0.00 0.00 0.00 0.00 0.00 0.00 0.00 0.00 0.00 0.00 0.00 0.00 0.00 0.00 0.00 0.00 0.00 0.00 0.00 0.00 0.00 0.00 0.00 0.00 0.00 0.00 0.00
0.00 0.00 0.00 0.00 0.00 0.00 0.00 0.00 0.00 0.00 0.00 0.00 0.00 0.00 0.00 0.00 0.00 0.00 0.00 0.00 0.00 0.00 0.00 0.00 0.00 0.00 0.00 0.00 0.00 0.00 0.00 0.00 0.00 0.00 0.00 0.00 0.00 0.00 0.00 0.00 0.00 0.00 0.00 0.00 0.00
0.00 0.00 0.00 0.00 0.00 0.00 0.00 0.00 0.00 0.00 0.00 0.00 0.00 0.00 0.00 0.00 0.00 0.00 0.00 0.00 0.00 0.00 0.00 0.00 0.00 0.00 0.00 0.00 0.00 0.00 0.00 0.00 0.00 0.00 0.00 0.00 0.00 0.00 0.00 0.00 0.00 0.00 0.00 0.00 0.00
0.00 0.00 0.00 0.00 0.00 0.00 0.00 0.00 0.00 0.00 0.00 0.00 0.00 0.00 0.00 0.00 0.00 0.00 0.00 0.00 0.00 0.00 0.00 0.00 0.00 0.00 0.00 0.00 0.00 0.00 0.00 0.00 0.00 0.00 0.00 0.00 0.00 0.00 0.00 0.00 0.00 0.00 0.00 0.00 0.00
0.00 0.00 0.00 0.00 0.00 0.00 0.00 0.00 0.00 0.00 0.00 0.00 0.00 0.00 0.00 0.00 0.00 0.00 0.00 0.00 0.00 0.00 0.00 0.00 0.00 0.00 0.00 0.00 0.00 0.00 0.00 0.00 0.00 0.00 0.00 0.00 0.00 0.00 0.00 0.00 0.00 0.00 0.00 0.00 0.00
0.00 0.00 0.00 0.00 0.00 0.00 0.00 0.00 0.00 0.00 0.00 0.00 0.00 0.00 0.00 0.00 0.00 0.00 0.00 0.00 0.00 0.00 0.00 0.00 0.00 0.00 0.00 0.00 0.00 0.00 0.00 0.00 0.00 0.00 0.00 0.00 0.00 0.00 0.00 0.00 0.00 0.00 0.00 0.00 0.00
0.00 0.00 0.00 0.00 0.00 0.00 0.00 0.00 0.00 0.00 0.00 0.00 0.00 0.00 0.00 0.00 0.00 0.00 0.00 0.00 0.00 0.00 0.00 0.00 0.00 0.00 0.00 0.00 0.00 0.00 0.00 0.00 0.00 0.00 0.00 0.00 0.00 0.00 0.00 0.00 0.00 0.00 0.00 0.00 0.00
MSLP
1016.46 1016.11 1015.74 1015.37 1014.92 1014.54 1014.08 1013.52 1013.13 1012.66 1012.28 1011.97 1011.75 1011.55 1011.34 1011.09 1010.44 1010.07 1008.30 1005.70 1005.34 1005.10 1005.50 1005.11 1004.62 1004.10 1004.01 1004.33 1005.20 1006.56 1006.57 1004.44 1003.56 1003.50 1004.33 1004.69 1005.70 1007.26 1008.29 1009.44 1010.68 1011.67 1013.20 1014.98 1016.12
1016.77 1016.21 1015.81 1015.37 1014.91 1014.39 1013.95 1013.50 1013.02 1012.65 1012.23 1011.94 1011.64 1011.40 1011.24 1011.05 1010.22 1008.39 1005.50 1005.12 1004.98 1004.97 1005.21 1005.03 1004.24 1003.54 1003.29 1002.57 1002.28 1004.02 1003.48 1002.98 1002.54 1002.85 1003.83 1004.70 1005.81 1007.37 1008.87 1010.65 1012.06 1012.95 1014.02 1014.95 1015.98
1016.99 1016.48 1015.88 1015.40 1014.95 1014.42 1013.78 1013.30 1012.83 1012.49 1012.17 1011.87 1011.63 1011.35 1011.20 1011.13 1009.89 1006.09 1004.25 1004.72 1005.05 1004.96 1004.88 1004.92 1004.27 1003.70 1002.87 1001.93 1000.81 1000.94 1002.10 1001.97 1002.11 1002.77 1003.34 1004.71 1006.14 1007.37 1008.67 1010.86 1011.90 1012.62 1013.66 1014.79 1015.57
1017.06 1016.64 1016.07 1015.44 1014.88 1014.43 1013.78 1013.10 1012.72 1012.19 1012.03 1011.84 1011.65 1011.40 1011.23 1010.80 1008.24 1004.86 1004.59 1004.80 1005.22 1005.08 1004.93 1004.51 1003.76 1003.23 1002.63 1001.53 1000.47 1000.90 1001.12 1001.42 1002.09 1002.62 1003.38 1004.53 1005.92 1007.55 1008.46 1010.10 1011.19 1012.22 1013.06 1013.90 1014.81
1017.13 1016.64 1016.15 1015.53 1014.84 1014.23 1013.75 1013.06 1012.51 1012.11 1011.71 1011.67 1011.52 1011.41 1011.41 1009.87 1006.35 1004.57 1004.75 1004.96 1005.22 1005.28 1004.86 1004.58 1003.90 1002.97 1002.15 1001.12 1000.78 1000.72 1001.05 1001.31 1002.06 1002.55 1003.86 1005.00 1006.50 1007.70 1008.98 1009.79 1011.04 1011.69 1012.55 1013.54 1014.42
1017.16 1016.64 1016.06 1015.49 1014.81 1014.07 1013.49 1012.94 1012.31 1011.89 1011.62 1011.41 1011.35 1011.42 1010.86 1007.95 1004.10 1004.14 1004.67 1005.03 1004.93 1005.04 1004.45 1004.15 1003.44 1002.58 1002.02 1001.46 1001.21 1001.13 1001.15 1001.64 1002.22 1003.06 1004.16 1005.16 1006.94 1007.39 1009.58 1009.98 1010.84 1011.54 1012.32 1013.25 1013.89
1017.12 1016.59 1015.97 1015.35 1014.75 1014.02 1013.29 1012.69 1012.16 1011.67 1011.43 1011.34 1011.20 1011.00 1009.31 1005.71 1003.46 1003.94 1004.29 1004.41 1004.31 1004.40 1004.26 1003.39 1002.92 1002.85 1002.59 1002.30 1001.41 1001.37 1001.63 1002.02 1002.58 1003.82 1004.90 1005.22 1007.58 1008.38 1009.33 1009.91 1010.56 1011.14 1011.99 1012.76 1013.39
1017.20 1016.50 1015.90 1015.24 1014.54 1013.93 1013.19 1012.42 1011.89 1011.46 1011.21 1011.20 1011.15 1010.56 1007.78 1003.49 1003.30 1003.59 1003.80 1004.05 1003.90 1003.77 1003.67 1003.15 1002.79 1002.89 1003.00 1002.52 1001.93 1001.88 1002.09 1002.86 1003.06 1003.68 1004.89 1004.62 1007.84 1008.56 1009.24 1009.82 1010.44 1010.84 1011.69 1012.34 1012.81
1017.27 1016.49 1015.78 1015.12 1014.43 1013.69 1012.93 1012.15 1011.43 1011.10 1011.08 1011.06 1011.02 1009.94 1006.24 1002.88 1002.98 1002.83 1003.06 1003.48 1003.60 1003.59 1003.48 1003.12 1003.37 1003.56 1003.32 1003.33 1003.04 1002.41 1002.35 1002.81 1003.20 1003.01 1004.28 1004.59 1007.27 1008.05 1008.64 1009.30 1009.94 1010.51 1011.14 1011.87 1012.53
1017.26 1016.49 1015.66 1014.95 1014.27 1013.61 1012.58 1011.30 1010.79 1010.82 1010.74 1010.38 1009.59 1008.89 1005.19 1002.65 1002.49 1002.55 1002.72 1002.88 1003.33 1003.64 1003.76 1003.69 1004.12 1004.09 1003.80 1003.82 1003.59 1002.76 1002.39 1002.14 1002.40 1003.31 1003.47 1004.94 1006.28 1007.18 1007.78 1008.58 1009.19 1009.86 1010.64 1011.39 1011.98
1017.20 1016.40 1015.53 1014.62 1013.96 1013.66 1012.78 1011.00 1010.96 1010.36 1009.54 1007.56 1006.09 1004.68 1002.34 1001.92 1001.92 1002.43 1002.48 1002.77 1003.12 1003.72 1004.08 1004.03 1004.44 1003.95 1003.18 1002.60 1002.04 1001.77 1001.23 1001.33 1001.77 1001.99 1003.20 1004.37 1005.53 1006.25 1006.88 1007.59 1008.52 1009.39 1010.03 1010.74 1011.36
1017.15 1016.34 1015.35 1014.29 1013.30 1013.04 1013.22 1011.15 1007.50 1006.35 1006.07 1005.27 1004.25 1003.68 1002.38 1001.72 1001.83 1001.95 1002.11 1002.89 1003.21 1003.84 1004.15 1004.35 1003.95 1002.82 1002.42 1001.89 1001.49 1000.90 1000.82 1000.85 1001.44 1001.56 1002.86 1004.28 1005.02 1005.54 1006.11 1006.62 1007.07 1008.35 1009.32 1009.87 1010.67
1017.11 1016.30 1015.32 1013.97 1012.44 1011.84 1011.03 1008.75 1006.35 1005.72 1005.47 1003.29 1002.32 1002.08 1001.27 1000.49 1001.01 1001.27 1001.83 1002.45 1003.04 1003.79 1003.96 1004.00 1002.55 1001.96 1001.70 1001.20 1000.62 1000.45 1000.63 1000.80 1001.08 1001.57 1002.37 1004.00 1005.20 1005.39 1005.53 1005.91 1006.53 1007.16 1007.90 1008.76 1009.32
1017.03 1016.31 1015.45 1014.18 1011.77 1011.36 1009.15 1006.93 1006.15 1005.48 1004.99 1002.07 1000.62 1000.00 1000.24 1000.09 1000.44 1000.60 1001.29 1002.25 1002.68 1003.15 1003.47 1003.27 1002.10 1001.79 1000.79 1000.33 1000.29 1000.38 1000.09 1000.40 1001.09 1002.23 1002.81 1003.37 1005.67 1005.49 1004.89 1005.30 1005.68 1006.32 1006.96 1007.61 1008.43
1016.92 1016.29 1015.60 1015.57 1014.09 1011.80 1008.33 1007.32 1006.33 1005.71 1004.25 999.00 998.23 997.82 998.98 999.58 999.31 999.77 1000.50 1001.61 1001.95 1002.21 1002.81 1002.02 1001.22 1000.94 1000.45 1000.00 1000.02 1000.22 1000.32 1000.68 1001.29 1002.65 1003.37 1003.71 1004.68 1004.52 1004.80 1005.13 1005.18 1005.41 1005.86 1006.35 1007.08
1016.66 1016.16 1015.75 1014.02 1013.66 1010.58 1009.40 1008.01 1007.28 1006.41 1002.60 997.94 996.66 997.63 998.89 999.42 999.48 999.60 1000.43 1001.06 1001.22 1001.96 1001.74 1001.49 1000.27 999.98 999.52 999.54 999.91 1000.18 1000.84 1001.54 1002.32 1003.42 1004.52 1003.83 1004.21 1004.36 1004.22 1003.62 1003.94 1004.31 1004.62 1004.98 1005.97
1016.19 1015.63 1015.61 1015.03 1011.96 1009.54 1009.84 1008.48 1007.52 1004.70 1000.91 997.92 996.97 997.67 998.59 998.93 999.39 999.64 1000.23 1001.12 1001.50 1001.77 1001.79 1001.08 1000.33 999.64 999.29 999.75 999.93 1000.50 1001.64 1003.01 1004.44 1005.22 1004.87 1003.61 1003.56 1002.96 1002.53 1002.52 1002.51 1002.87 1003.50 1003.96 1004.70
1015.55 1014.65 1013.03 1011.92 1010.83 1011.21 1010.20 1009.15 1006.64 1002.56 1000.55 997.30 997.15 997.63 998.35 998.71 999.07 999.10 999.90 1000.78 1001.13 1001.41 1001.47 1001.12 1000.40 999.36 999.01 999.56 1000.14 1000.85 1001.85 1003.15 1004.74 1005.30 1004.74 1003.17 1002.90 1002.17 1001.21 1001.50 1001.85 1001.65 1002.21 1003.01 1004.04
1015.30 1013.05 1011.39 1009.43 1009.75 1010.67 1010.42 1008.53 1004.41 1001.84 999.75 998.42 997.83 997.45 997.85 998.12 998.45 998.84 999.15 999.84 1000.28 1000.54 1001.05 1000.65 1000.16 999.06 998.68 999.14 999.84 1000.78 1001.47 1002.42 1004.19 1004.60 1004.95 1003.76 1003.05 1002.17 1001.58 1001.66 1001.64 1001.69 1002.00 1002.75 1003.59
1015.44 1013.10 1009.85 1007.66 1007.89 1009.33 1009.17 1005.92 1003.45 1001.12 998.85 998.47 998.50 997.53 997.27 997.68 997.99 998.12 998.37 998.56 999.14 999.72 999.89 999.92 1000.16 999.03 998.78 998.94 999.37 1000.22 1001.09 1002.65 1004.14 1005.23 1005.19 1004.07 1003.57 1003.06 1002.54 1002.22 1002.12 1002.19 1002.52 1002.81 1003.41
1015.04 1011.69 1006.06 1005.76 1006.93 1007.71 1006.00 1004.28 1003.21 1001.45 1000.03 999.63 998.76 998.27 997.83 996.80 997.03 997.30 997.47 997.41 997.83 998.62 999.18 999.56 1000.22 999.52 998.94 998.93 999.64 1000.16 1001.08 1002.26 1003.43 1004.45 1005.06 1005.27 1004.90 1003.11 1002.92 1002.71 1002.62 1002.66 1003.22 1003.66 1004.44
1013.48 1010.40 1004.41 1004.95 1006.20 1005.33 1004.46 1004.13 1003.01 1001.42 1000.56 999.93 999.23 998.55 997.84 997.09 996.30 996.34 996.23 996.09 996.39 997.43 998.29 998.76 999.62 1000.01 999.35 998.72 998.66 999.67 1000.64 1001.76 1003.64 1004.27 1004.55 1004.42 1004.44 1003.11 1002.81 1002.77 1002.94 1003.34 1003.67 1004.39 1005.32
1013.50 1009.46 1004.66 1004.54 1004.06 1003.90 1004.17 1003.67 1003.06 1002.00 1000.52 1000.14 999.24 998.29 997.42 997.07 996.57 995.98 995.10 995.03 995.30 996.23 997.37 998.42 999.39 1000.24 999.72 998.99 998.50 999.22 1000.07 1000.93 1001.92 1003.07 1004.18 1004.66 1004.51 1003.34 1003.03 1003.38 1003.62 1004.06 1004.57 1005.40 1006.78
1013.99 1009.36 1005.61 1004.51 1003.70 1003.66 1003.78 1003.13 1002.18 1001.40 1000.27 1000.04 999.07 998.46 997.71 997.03 996.13 995.84 995.40 994.57 994.39 995.12 996.24 997.54 998.99 999.79 999.95 999.47 999.01 999.10 999.46 1000.15 1001.24 1002.71 1003.57 1003.76 1004.06 1003.92 1003.90 1003.93 1004.17 1004.63 1005.21 1006.16 1007.56
1013.84 1009.76 1007.28 1005.71 1004.78 1004.16 1003.65 1002.97 1001.88 1000.70 999.72 999.74 998.98 998.33 997.76 997.30 996.31 996.10 995.56 994.81 994.10 994.40 995.85 997.15 998.99 999.42 999.25 998.89 998.83 998.78 998.74 999.39 1000.36 1001.38 1002.40 1002.85 1003.51 1003.99 1004.08 1004.44 1004.70 1005.11 1005.78 1006.93 1008.43
1014.13 1010.98 1009.40 1008.19 1006.19 1005.13 1003.76 1002.66 1001.64 1000.84 1000.03 998.83 998.75 997.59 997.36 996.99 996.46 996.09 995.85 995.27 995.08 994.94 995.66 996.64 998.47 999.36 999.79 998.81 998.54 998.50 998.28 998.46 999.14 999.99 1000.93 1002.07 1003.41 1003.14 1003.87 1004.39 1005.04 1005.82 1006.57 1008.18 1009.53
1013.85 1012.52 1011.40 1008.62 1007.02 1005.82 1003.80 1002.57 1001.39 1001.08 999.66 998.74 997.81 997.44 996.87 996.17 995.83 995.31 995.31 995.18 995.06 995.46 996.04 996.96 998.41 999.76 999.87 999.57 999.01 998.64 997.59 997.85 998.09 998.87 999.93 1001.37 1002.43 1003.09 1004.77 1005.23 1005.54 1006.14 1006.99 1008.70 1010.12
Thickness
5757 5761 5765 5769 5774 5778 5783 5789 5794 5798 5803 5807 5810 5813 5816 5820 5827 5833 5838 5866 5875 5883 5880 5879 5880 5881 5883 5869 5857 5843 5818 5826 5835 5829 5826 5846 5829 5833 5829 5810 5805 5800 5785 5776 5772
5754 5760 5764 5768 5773 5779 5784 5790 5795 5800 5804 5808 5812 5816 5818 5822 5830 5837 5872 5878 5881 5885 5878 5871 5870 5878 5861 5872 5881 5853 5839 5848 5863 5855 5838 5842 5836 5827 5814 5799 5788 5785 5787 5783 5775
5751 5757 5762 5767 5772 5778 5785 5791 5797 5802 5806 5810 5813 5817 5820 5823 5827 5852 5884 5882 5881 5885 5884 5878 5881 5872 5860 5878 5892 5884 5846 5869 5870 5865 5861 5842 5835 5835 5817 5793 5794 5788 5789 5784 5778
5749 5754 5760 5766 5772 5777 5784 5791 5798 5804 5808 5811 5814 5817 5821 5827 5812 5873 5883 5883 5881 5883 5879 5874 5873 5856 5852 5864 5897 5862 5885 5878 5873 5871 5859 5845 5843 5824 5821 5812 5816 5806 5802 5794 5785
5746 5751 5757 5764 5771 5777 5783 5791 5798 5804 5810 5812 5815 5817 5820 5822 5840 5881 5882 5883 5881 5877 5869 5863 5859 5858 5852 5878 5884 5870 5882 5882 5879 5873 5860 5856 5832 5826 5817 5824 5822 5815 5806 5797 5791
5742 5749 5755 5762 5770 5777 5784 5791 5798 5804 5810 5814 5816 5818 5821 5816 5884 5885 5883 5879 5878 5873 5871 5870 5869 5874 5865 5871 5868 5880 5884 5877 5879 5870 5860 5847 5836 5836 5820 5826 5816 5815 5807 5801 5795
5738 5746 5753 5761 5768 5776 5784 5791 5798 5804 5809 5812 5816 5821 5827 5840 5888 5888 5886 5881 5884 5878 5866 5881 5885 5870 5867 5857 5888 5885 5865 5870 5871 5861 5848 5857 5821 5815 5826 5826 5816 5814 5810 5806 5803
5734 5742 5750 5758 5766 5774 5783 5791 5798 5804 5808 5811 5814 5821 5823 5886 5889 5886 5887 5880 5888 5889 5884 5892 5892 5878 5871 5879 5877 5864 5863 5831 5862 5862 5853 5853 5797 5823 5831 5822 5813 5816 5812 5808 5808
5728 5738 5747 5755 5764 5773 5782 5791 5799 5804 5807 5810 5813 5818 5827 5891 5874 5889 5891 5874 5880 5884 5887 5895 5884 5864 5866 5840 5827 5850 5821 5839 5848 5873 5855 5850 5811 5832 5838 5828 5820 5818 5815 5810 5806
5723 5733 5743 5752 5761 5770 5781 5794 5800 5803 5806 5812 5819 5810 5844 5857 5877 5885 5893 5888 5872 5871 5865 5865 5854 5838 5838 5825 5791 5824 5839 5849 5847 5859 5864 5836 5825 5837 5844 5836 5829 5826 5821 5816 5812
5717 5728 5739 5750 5758 5764 5775 5792 5790 5791 5803 5810 5827 5836 5864 5878 5889 5876 5886 5877 5872 5859 5829 5851 5825 5813 5835 5850 5860 5861 5866 5858 5867 5884 5857 5841 5834 5838 5847 5846 5836 5830 5827 5823 5819
5711 5722 5734 5747 5758 5763 5765 5780 5810 5826 5806 5833 5842 5847 5867 5878 5854 5869 5887 5853 5849 5826 5841 5830 5813 5852 5864 5865 5866 5872 5862 5859 5872 5887 5862 5845 5838 5846 5848 5847 5851 5840 5831 5832 5828
5704 5714 5727 5742 5760 5768 5776 5793 5825 5828 5796 5830 5852 5849 5860 5878 5856 5859 5872 5860 5844 5828 5832 5817 5844 5871 5864 5858 5867 5866 5862 5864 5858 5879 5879 5852 5827 5836 5851 5855 5855 5855 5850 5843 5839
5697 5706 5718 5732 5758 5761 5776 5805 5817 5824 5768 5812 5834 5855 5864 5870 5848 5882 5881 5861 5848 5830 5837 5833 5864 5855 5863 5861 5871 5847 5889 5887 5873 5848 5818 5862 5782 5824 5845 5845 5851 5852 5854 5851 5847
5689 5698 5707 5713 5728 5747 5782 5797 5810 5803 5727 5844 5852 5896 5876 5856 5868 5867 5888 5863 5840 5844 5841 5834 5850 5848 5850 5866 5880 5859 5887 5879 5881 5854 5850 5847 5807 5835 5845 5832 5845 5852 5858 5860 5860
5682 5690 5696 5715 5721 5747 5767 5780 5781 5743 5738 5829 5860 5846 5838 5850 5855 5866 5861 5872 5870 5846 5853 5851 5882 5873 5872 5884 5883 5888 5876 5870 5861 5841 5790 5830 5823 5818 5834 5849 5854 5858 5861 5864 5863
5675 5684 5689 5698 5721 5748 5752 5757 5726 5725 5816 5822 5831 5842 5835 5835 5838 5846 5839 5828 5818 5805 5811 5844 5854 5875 5886 5860 5876 5870 5837 5789 5784 5782 5780 5842 5832 5832 5866 5872 5874 5869 5868 5867 5865
5667 5680 5699 5713 5722 5724 5734 5722 5705 5774 5793 5848 5839 5839 5820 5834 5831 5841 5831 5816 5835 5832 5819 5807 5804 5857 5882 5863 5845 5846 5836 5786 5767 5782 5797 5852 5814 5839 5883 5888 5887 5887 5880 5877 5868
5655 5679 5699 5720 5719 5715 5705 5694 5735 5776 5814 5818 5825 5815 5814 5831 5833 5831 5826 5825 5836 5844 5806 5809 5816 5874 5883 5884 5870 5846 5826 5854 5816 5827 5807 5837 5849 5870 5880 5878 5882 5881 5883 5874 5870
5635 5660 5696 5718 5720 5707 5693 5713 5749 5794 5824 5824 5794 5820 5806 5818 5817 5821 5821 5843 5839 5852 5859 5839 5806 5859 5874 5881 5878 5854 5868 5817 5806 5785 5787 5819 5823 5815 5849 5859 5870 5877 5881 5882 5872
5620 5654 5710 5718 5710 5695 5699 5725 5749 5782 5797 5792 5791 5794 5808 5823 5827 5820 5823 5844 5855 5851 5859 5850 5823 5833 5866 5845 5838 5841 5832 5838 5829 5816 5790 5780 5789 5857 5851 5857 5862 5873 5877 5871 5866
5614 5637 5701 5704 5677 5701 5705 5723 5744 5764 5780 5785 5793 5793 5798 5816 5828 5825 5824 5841 5867 5862 5836 5854 5830 5802 5826 5869 5881 5861 5845 5836 5791 5798 5813 5801 5791 5864 5864 5867 5866 5866 5871 5870 5856
5588 5631 5679 5685 5672 5690 5705 5714 5726 5740 5760 5768 5777 5797 5815 5807 5806 5827 5843 5869 5871 5861 5844 5848 5817 5790 5808 5843 5864 5848 5852 5848 5841 5826 5804 5789 5791 5857 5859 5859 5861 5854 5862 5862 5840
5562 5605 5645 5663 5684 5682 5684 5697 5710 5744 5756 5766 5776 5789 5792 5794 5819 5813 5824 5858 5877 5872 5866 5857 5823 5804 5789 5811 5843 5833 5847 5853 5834 5798 5806 5808 5815 5829 5837 5846 5854 5853 5852 5851 5834
5542 5585 5604 5617 5649 5668 5680 5687 5699 5718 5756 5760 5761 5769 5779 5774 5797 5800 5822 5842 5868 5875 5861 5852 5803 5820 5833 5844 5848 5849 5848 5847 5829 5825 5808 5827 5822 5824 5827 5833 5846 5851 5847 5839 5828
5517 5552 5566 5592 5622 5634 5655 5671 5691 5714 5726 5745 5745 5773 5779 5775 5788 5791 5812 5821 5831 5861 5849 5851 5804 5825 5813 5842 5845 5836 5850 5849 5849 5846 5846 5839 5819 5843 5836 5839 5837 5840 5834 5819 5811
5502 5527 5543 5579 5603 5619 5648 5667 5685 5700 5725 5745 5759 5765 5765 5786 5812 5825 5833 5837 5840 5841 5830 5829 5807 5798 5783 5820 5824 5800 5833 5846 5851 5851 5848 5818 5828 5837 5822 5825 5828 5830 5826 5814 5804